Location: Hilton Head Island
(32.2163°N, 80.7526°W)
Time: 16:33:11
(UTC-05:00)

Explorer 11/Cluster Stage 4 - Pass Details

Date: 25 February 2026
Orbit: 463 x 1176 km, 28.8° (Epoch: 6 March)

Event Time Altitude Azimuth Distance (km) Brightness Sun altitude
Rises 10:13:50 0° 248° (WSW) 3,768 9.9 36.7°
Reaches altitude 10° 10:16:50 10° 244° (WSW) 2,712 9.3 37.1°
Maximum altitude 10:23:07 51° 170° (S) 1,052 8.6 38.1°
Drops below altitude 10° 10:28:15 10° 95° (E) 2,220 9.6 38.8°
Sets 10:30:30 0° 90° (E) 3,032 10.1 39.1°
